Location: Pine Mountain Observatory
(43.7910°N, 120.9377°W)
Time: 23:48:12
(UTC-07:00)

APEX - Visible Passes

Search period start: 19 August 2014 00:00
Search period end: 29 August 2014 00:00
Orbit: 338 x 1418 km, 69.9° (Epoch: 19 August)

Date Brightness Start Highest point End Pass type
(mag) Time Alt. Az. Time Alt. Az. Time Alt. Az.
19 Aug 7.8 05:17:38 10° ESE 05:21:52 15° E 05:26:02 10° ENE visible
20 Aug 7.7 05:12:44 10° SE 05:17:47 17° E 05:22:43 10° ENE visible
21 Aug 7.6 05:07:59 10° SE 05:13:41 20° E 05:19:14 10° NE visible
22 Aug 7.5 05:03:20 10° SE 05:09:34 22° E 05:15:36 10° NE visible
23 Aug 7.3 04:58:45 10° SSE 05:05:26 25° E 05:11:52 10° NE visible
24 Aug 7.0 04:54:13 10° SSE 05:01:18 29° E 05:08:02 10° NE visible
25 Aug 6.8 04:49:43 10° SSE 04:57:08 32° ESE 05:04:09 10° NE visible
26 Aug 6.6 04:45:15 10° SSE 04:52:58 36° ESE 05:00:11 10° NE visible
27 Aug 6.4 04:40:48 10° S 04:48:46 40° ESE 04:56:09 10° NE visible
28 Aug 6.2 04:36:23 10° S 04:44:33 45° ESE 04:52:03 10° NE visible
